User: anonymous   Login
Location: Calvera
(42.3882°N, 0.6137°E)
Time: 15:41:48
(UTC+00:00)
Language:

ALOS - Orbit

View from above orbital plane
View from above orbital plane
View from above satellite
View from above satellite

Ground track
Ground track

The orbit data is extracted from the following two-line orbital elements,

1 28931U 06002A   21017.52518181  .00000130  00000-0  34212-4 0  9993
2 28931  97.8678 359.0366 0001868  92.8386 267.3026 14.62787276798999
Epoch (UTC): 17 January 2021 12:36:15
Eccentricity: 0.0001868
inclination: 97.8678°
perigee height: 683 km
apogee height: 685 km
right ascension of ascending node: 359.0366°
argument of perigee: 92.8386°
revolutions per day: 14.62787276
mean anomaly at epoch: 267.3026°
orbit number at epoch: 79899

The dashed part of the orbit path shows where the satellite is in the earth's shadow,  

DLR